Content
SEND FEEDBACK

Daily
Averages
Monthly
Summary
United States of America

BOSTON, MASSACHUSETTS


Home > North America > United States > Massachusetts
Elevation: 4 feet     Latitude: 42 22N     Longitude: 071 02W

WEATHER
 
SELECT A DAY
Number of Records: 206,319;   Date Range: 1/1/95 - 11/26/14
 
SHARE

PRINT THIS DATA

[ ← Previous Day ]
WEATHER ALMANAC - JULY 7, 2013
[ Next Day → ]
[ °C ]   °F
Weather ElementAverageHighLow
Temperature82.3 °F91 °F (1:54 pm)75.9 °F (11:54 pm)
Dewpoint66.6 °F72 °F (6:54 pm)62.1 °F (1:54 am)
Humidity60.1 %85 % (11:54 pm)42 % (10:54 am)
Barometer29.97 in30.02 in (1:54 am)29.91 in (6:54 pm)
Wind Speed7.8 mph12.7 mph (9:54 am)
Wind Gust18.4 mph (11:54 am)
Weather ElementAverage
Visibility10 mi
Wind DirectionWSW (238.7 °)

Weather ElementTotal
Precipitation---
Cooling Degree Days18.5 (Base 65)
Growing Degree Days33.5 (Base 50)
Averaged from 23 records on July 7, 2013
WEATHER CONDITIONS BREAKOUT
WIND DIRECTION BREAKOUT
WEATHER BY HOUR - JULY 7, 2013
[ °C ]   °F
Local TimeTemperatureDewpointHumidityBarometerVisibilityWind DirectionWind SpeedGust SpeedPrecipitationEventsConditions
1:54 AM80.1 °F62.1 °F54 %30.02 in10.0 miWest (280°)9.2 mphPartly Cloudy
2:54 AM79.0 °F63.0 °F58 %30.01 in10.0 miWNW (300°)5.8 mphPartly Cloudy
3:54 AM78.1 °F63.0 °F60 %30.01 in10.0 miNW (310°)6.9 mphPartly Cloudy
4:54 AM78.1 °F64.0 °F62 %30.00 in10.0 miWest (280°)4.6 mphMostly Cloudy
5:54 AM77.0 °F64.0 °F64 %30.01 in10.0 miWest (270°)4.6 mphMostly Cloudy
6:54 AM80.1 °F64.0 °F58 %30.01 in10.0 miWest (280°)5.8 mphScattered Clouds
7:54 AM81.0 °F64.0 °F56 %30.01 in10.0 miWest (270°)6.9 mphMostly Cloudy
8:54 AM82.9 °F63.0 °F51 %30.01 in10.0 miWest (280°)8.1 mphMostly Cloudy
9:54 AM87.1 °F62.1 °F43 %30.01 in10.0 miWNW (290°)12.7 mphMostly Cloudy
10:54 AM90.0 °F64.0 °F42 %29.99 in10.0 miWest (260°)8.1 mph17.3 mphMostly Cloudy
11:54 AM88.0 °F68.0 °F51 %29.99 in10.0 miWNW (300°)11.5 mph18.4 mphOvercast
12:54 PM89.1 °F68.0 °F50 %29.99 in10.0 miWest (270°)10.4 mphOvercast
1:54 PM91.0 °F69.1 °F48 %29.97 in10.0 miNW (310°)5.8 mphMostly Cloudy
2:54 PM87.1 °F70.0 °F57 %29.94 in10.0 miSE (130°)8.1 mphMostly Cloudy
3:54 PM86.0 °F64.9 °F49 %29.94 in10.0 miEast (90°)11.5 mphMostly Cloudy
4:54 PM81.0 °F64.0 °F56 %29.94 in10.0 miESE (120°)12.7 mphOvercast
5:54 PM79.0 °F68.0 °F69 %29.94 in10.0 miSE (140°)8.1 mphRainLight Rain
6:54 PM80.1 °F72.0 °F76 %29.91 in10.0 miSW (230°)5.8 mph0.00 inRainLight Rain
7:54 PM81.0 °F71.1 °F72 %29.92 in10.0 miSW (230°)9.2 mph0.00 inOvercast
8:54 PM81.0 °F71.1 °F72 %29.93 in10.0 miWSW (240°)5.8 mphMostly Cloudy
9:54 PM81.0 °F71.1 °F72 %29.94 in10.0 miSSW (210°)6.9 mphMostly Cloudy
10:54 PM79.0 °F71.1 °F77 %29.94 in10.0 miSW (230°)6.9 mphScattered Clouds
11:54 PM75.9 °F71.1 °F85 %29.94 in10.0 miSouth (170°)3.5 mphScattered Clouds
Hourly data recorded from KBOS, located miles away from Boston, Massachusetts







STORIES FROM OUR PARTNERS